EN

Hourly Weather Dzierzyslawice

Today, 26 October, Monday

Time Temperature Precipitation Wind Pressure Humidity
00:00 +11°C° 0 mm 3 mps 740 mmHg 90%
01:00 +11°C° 0 mm 3 mps 740 mmHg 91%
02:00 +11°C° 0 mm 3 mps 739 mmHg 91%
03:00 +10°C° 0 mm 3 mps 739 mmHg 91%
04:00 +10°C° 0 mm 3 mps 739 mmHg 91%
05:00 +10°C° 0 mm 3 mps 739 mmHg 91%
06:00 +10°C° 0 mm 3 mps 738 mmHg 91%
07:00 +10°C° 0 mm 3 mps 738 mmHg 90%
08:00 +12°C° 0 mm 3 mps 738 mmHg 86%
09:00 +13°C° 0 mm 3 mps 738 mmHg 81%
10:00 +14°C° 0 mm 4 mps 738 mmHg 76%
11:00 +14°C° 0 mm 3 mps 738 mmHg 77%
12:00 +14°C° 0 mm 3 mps 737 mmHg 77%
13:00 +14°C° 0 mm 3 mps 737 mmHg 77%
14:00 +14°C° 0 mm 3 mps 737 mmHg 79%
15:00 +13°C° 0 mm 4 mps 737 mmHg 80%
16:00 +13°C° 0 mm 4 mps 737 mmHg 81%
17:00 +13°C° 0 mm 3 mps 737 mmHg 83%
18:00 +12°C° 0 mm 3 mps 737 mmHg 86%
19:00 +13°C° 0 mm 2 mps 738 mmHg 89%
20:00 +12°C° 0 mm 2 mps 738 mmHg 89%
21:00 +12°C° 0 mm 2 mps 738 mmHg 90%
22:00 +12°C° 0 mm 1 mps 738 mmHg 91%
23:00 +12°C° 0.1 mm 1 mps 738 mmHg 91%

Tomorrow, 27 October, Tuesday

Time Temperature Precipitation Wind Pressure Humidity
00:00 +12°C° 0.1 mm 1 mps 738 mmHg 90%
01:00 +12°C° 0.1 mm 1 mps 738 mmHg 90%
02:00 +13°C° 0 mm 1 mps 738 mmHg 90%
03:00 +13°C° 0 mm 2 mps 738 mmHg 89%
04:00 +13°C° 0 mm 2 mps 738 mmHg 88%
05:00 +13°C° 0 mm 2 mps 739 mmHg 87%
06:00 +12°C° 0 mm 3 mps 739 mmHg 86%
07:00 +12°C° 0 mm 3 mps 739 mmHg 85%
08:00 +13°C° 0 mm 4 mps 739 mmHg 82%
09:00 +13°C° 0 mm 4 mps 739 mmHg 79%
10:00 +14°C° 0 mm 5 mps 739 mmHg 77%
11:00 +15°C° 0 mm 5 mps 739 mmHg 75%
12:00 +15°C° 0 mm 5 mps 739 mmHg 72%
13:00 +16°C° 0 mm 5 mps 740 mmHg 70%
14:00 +15°C° 0.1 mm 4 mps 740 mmHg 73%
15:00 +14°C° 0.1 mm 3 mps 740 mmHg 77%
16:00 +14°C° 0.1 mm 3 mps 740 mmHg 80%
17:00 +14°C° 0.1 mm 2 mps 740 mmHg 83%
18:00 +14°C° 0.1 mm 2 mps 741 mmHg 86%
19:00 +13°C° 0.1 mm 2 mps 741 mmHg 90%
20:00 +12°C° 0 mm 2 mps 742 mmHg 90%
21:00 +12°C° 0 mm 1 mps 742 mmHg 91%
22:00 +11°C° 0 mm 1 mps 743 mmHg 92%
23:00 +11°C° 0 mm 1 mps 743 mmHg 92%

Day after tomorrow, 28 October, Wednesday

Time Temperature Precipitation Wind Pressure Humidity
00:00 +10°C° 0 mm 1 mps 743 mmHg 93%
01:00 +10°C° 0 mm 1 mps 743 mmHg 93%
02:00 +10°C° 0 mm 1 mps 743 mmHg 92%
03:00 +9°C° 0 mm 1 mps 743 mmHg 91%
04:00 +8°C° 0 mm 0 mps 743 mmHg 90%
05:00 +9°C° 0 mm 1 mps 743 mmHg 90%
06:00 +9°C° 0 mm 1 mps 743 mmHg 90%
07:00 +9°C° 0 mm 1 mps 743 mmHg 89%
08:00 +9°C° 0 mm 2 mps 743 mmHg 82%
09:00 +12°C° 0 mm 2 mps 744 mmHg 76%
10:00 +14°C° 0 mm 2 mps 744 mmHg 69%
11:00 +13°C° 0 mm 3 mps 743 mmHg 66%
12:00 +14°C° 0 mm 3 mps 743 mmHg 63%
13:00 +16°C° 0 mm 3 mps 743 mmHg 61%
14:00 +14°C° 0 mm 3 mps 743 mmHg 65%
15:00 +13°C° 0 mm 3 mps 743 mmHg 69%
16:00 +13°C° 0 mm 2 mps 743 mmHg 74%
17:00 +13°C° 0 mm 2 mps 743 mmHg 76%
18:00 +11°C° 0 mm 3 mps 743 mmHg 78%
19:00 +10°C° 0 mm 3 mps 743 mmHg 80%
20:00 +10°C° 0 mm 3 mps 744 mmHg 79%
21:00 +10°C° 0 mm 2 mps 744 mmHg 78%
22:00 +10°C° 0 mm 2 mps 744 mmHg 77%
23:00 +10°C° 0 mm 2 mps 744 mmHg 76%

29 October, Thursday

Time Temperature Precipitation Wind Pressure Humidity
00:00 +9°C° 0 mm 2 mps 744 mmHg 76%
01:00 +9°C° 0 mm 3 mps 744 mmHg 75%
02:00 +10°C° 0 mm 3 mps 744 mmHg 75%
03:00 +10°C° 0 mm 3 mps 744 mmHg 75%
04:00 +10°C° 0 mm 3 mps 744 mmHg 74%
05:00 +10°C° 0 mm 3 mps 744 mmHg 74%
06:00 +10°C° 0 mm 3 mps 744 mmHg 74%
07:00 +10°C° 0 mm 3 mps 745 mmHg 74%
08:00 +11°C° 0 mm 3 mps 745 mmHg 71%
09:00 +12°C° 0 mm 3 mps 745 mmHg 69%
10:00 +14°C° 0 mm 4 mps 745 mmHg 66%
11:00 +14°C° 0 mm 4 mps 745 mmHg 65%
12:00 +14°C° 0 mm 5 mps 745 mmHg 65%
13:00 +14°C° 0 mm 5 mps 745 mmHg 65%
14:00 +14°C° 0 mm 4 mps 746 mmHg 67%
15:00 +13°C° 0 mm 3 mps 746 mmHg 70%
16:00 +13°C° 0 mm 2 mps 746 mmHg 73%
17:00 +12°C° 0 mm 3 mps 746 mmHg 74%
18:00 +11°C° 0 mm 3 mps 747 mmHg 76%
19:00 +10°C° 0 mm 3 mps 747 mmHg 77%
20:00 +10°C° 0 mm 3 mps 748 mmHg 78%
21:00 +10°C° 0 mm 3 mps 748 mmHg 79%
22:00 +9°C° 0 mm 3 mps 748 mmHg 80%
23:00 +9°C° 0 mm 3 mps 748 mmHg 81%

30 October, Friday

Time Temperature Precipitation Wind Pressure Humidity
00:00 +9°C° 0 mm 3 mps 748 mmHg 83%
01:00 +9°C° 0 mm 3 mps 748 mmHg 84%
02:00 +8°C° 0 mm 4 mps 748 mmHg 84%
03:00 +8°C° 0 mm 4 mps 748 mmHg 83%
04:00 +8°C° 0 mm 4 mps 748 mmHg 83%
05:00 +8°C° 0 mm 4 mps 748 mmHg 82%
06:00 +8°C° 0 mm 4 mps 748 mmHg 82%
07:00 +10°C° 0 mm 4 mps 748 mmHg 81%
08:00 +10°C° 0 mm 4 mps 749 mmHg 79%
09:00 +11°C° 0 mm 3 mps 749 mmHg 77%
10:00 +12°C° 0 mm 3 mps 749 mmHg 75%
11:00 +13°C° 0 mm 3 mps 749 mmHg 72%
12:00 +14°C° 0 mm 3 mps 749 mmHg 69%
13:00 +16°C° 0 mm 3 mps 749 mmHg 67%
14:00 +14°C° 0 mm 4 mps 749 mmHg 69%
15:00 +14°C° 0 mm 4 mps 749 mmHg 71%
16:00 +13°C° 0 mm 4 mps 748 mmHg 74%
17:00 +13°C° 0 mm 4 mps 749 mmHg 74%
18:00 +12°C° 0 mm 4 mps 749 mmHg 74%
19:00 +12°C° 0 mm 4 mps 749 mmHg 74%
20:00 +11°C° 0 mm 4 mps 749 mmHg 75%
21:00 +11°C° 0 mm 4 mps 749 mmHg 75%
22:00 +11°C° 0 mm 4 mps 749 mmHg 75%
23:00 +11°C° 0 mm 4 mps 749 mmHg 76%

31 October, Saturday

Time Temperature Precipitation Wind Pressure Humidity
00:00 +11°C° 0 mm 4 mps 749 mmHg 77%
01:00 +10°C° 0 mm 4 mps 749 mmHg 78%
02:00 +10°C° 0 mm 4 mps 749 mmHg 78%
03:00 +10°C° 0 mm 3 mps 749 mmHg 79%
04:00 +10°C° 0 mm 3 mps 749 mmHg 79%
05:00 +10°C° 0 mm 3 mps 748 mmHg 80%
06:00 +10°C° 0 mm 3 mps 748 mmHg 81%
07:00 +9°C° 0 mm 3 mps 748 mmHg 83%
Show more